Location: Sternwarte ZA, Rosenfeld-Brittheim
(48.2889°N, 8.6789°E)
Time: 03:55:25
(UTC+02:00)

ISS - Pass Details

Date: 20 May 2017
Orbit: 401 x 408 km, 51.6° (Epoch: 25 June)

Event Time Altitude Azimuth Distance (km) Brightness Sun altitude
Exits shadow 03:43:21 - 285° (WNW) 1,942 -0.6 -14.7°
Reaches altitude 10° 03:44:32 10° 289° (WNW) 1,472 -1.1 -14.6°
Maximum altitude 03:47:43 45° 4° (N) 567 -2.7 -14.3°
Drops below altitude 10° 03:50:54 10° 79° (E) 1,466 -0.3 -14.0°
Sets 03:53:00 0° 86° (E) 2,314 0.6 -13.8°
